Regional Weather Roundup
Issued by NWS

Home | Current Version | Previous Version | Text Only | Print | Product List | Glossary On
Versions: 1 2 3 4 5 6 7 8 9 10 11 12 13 14 15 16 17 18 19 20 21 22 23 24 25 26 27 28
000
ASUS45 KTFX 020610
RWRMT
MONTANA REGIONAL WEATHER ROUNDUP
NATIONAL WEATHER SERVICE GREAT FALLS MT
1200 AM MDT MON MAY 02 2016

NOTE: "FAIR" INDICATES FEW OR NO CLOUDS BELOW 12000 FEET WITH NO
SIGNIFICANT WEATHER AND/OR OBSTRUCTIONS TO VISIBILITY.

MTZ001>007-043-020700-
WEST OF THE DIVIDE

CITY           SKY/WX    TMP DP  RH WIND       PRES   REMARKS
KALISPELL      CLEAR     41  38  89 CALM      30.12S
MISSOULA       CLEAR     49  37  63 N3        30.15S
BUTTE          CLEAR     37  28  70 SE8       30.23R WCI  31
MULLAN PASS    CLEAR     46  30  53 SE8       30.19F
ANACONDA         N/A     39  32  75 SW8       30.21S
DEER LODGE       N/A     43  34  70 SW3       30.21S
EUREKA           N/A     46  37  71 CALM      30.14R
HAMILTON         N/A     46  37  71 CALM      30.15R
LIBBY            N/A     46  37  71 CALM      30.13S
PLAINS           N/A     45  36  70 CALM      30.13S
$$

MTZ008-052>055-020700-
SOUTHWEST MONTANA

CITY           SKY/WX    TMP DP  RH WIND       PRES   REMARKS
BOZEMAN        CLEAR     42  28  57 NE6       30.20S
DILLON         CLEAR     47  26  44 CALM      30.19R
ENNIS          CLEAR     37  28  70 CALM      30.26R
TWIN BRIDGES     N/A     50  24  36 N12       30.16R
$$

MTZ009-010-012-014-046-048-049-054-020700-
EAST SLOPES AND CENTRAL MONTANA

CITY           SKY/WX    TMP DP  RH WIND       PRES   REMARKS
CUT BANK       CLEAR     48  32  53 S3        30.19S
GREAT FALLS    CLEAR     48  33  56 NE3       30.18F
MALMSTROM AFB  CLOUDY    42  35  74 SE5       30.19S
HELENA         CLEAR     50  35  56 SW8       30.18S
CHOTEAU          N/A     45  34  65 W5        30.20F
CONRAD           N/A     36  35  96 E2        30.19F
$$

MTZ011-013-016-021-045-047-050-051-020700-
NORTH CENTRAL MONTANA

CITY           SKY/WX    TMP DP  RH WIND       PRES   REMARKS
HAVRE          CLOUDY    42  36  79 S6        30.17S
LEWISTOWN      CLEAR     40  31  70 SE9       30.21S
N BAR RANCH      N/A     36  30  80 VRB5      30.25S
CHINOOK          N/A     46  39  76 SW3       30.17F
$$

MTZ017>020-022>027-061-062-020700-
NORTHEAST MONTANA

CITY           SKY/WX    TMP DP  RH WIND       PRES   REMARKS
GLASGOW        PTCLDY    51  35  54 W6        30.15F
JORDAN           N/A     41  37  86 W5        30.18F
SIDNEY         PTCLDY    54  30  40 W9        30.13F
WOLF POINT     PTCLDY    48  36  63 SW6       30.15F
PLENTYWOOD       N/A     52  34  50 W5        30.10F
POPLAR           N/A     48  36  61 SW3       30.15S
SCOBEY           N/A     51  30  44 W13       30.10F
$$

MTZ028>42-056>058-020700-
SOUTHCENTRAL AND SOUTHEAST MONTANA

CITY           SKY/WX    TMP DP  RH WIND       PRES   REMARKS
BAKER          CLEAR     43  34  70 CALM      30.20S
BILLINGS       CLOUDY    48  32  53 SW7       30.20F
LIVINGSTON     CLOUDY    37  29  72 S7        30.22S WCI  32
MILES CITY     CLEAR     49  33  54 W3        30.19F
EKALAKA          N/A     43  27  53 SE3       30.17S
FORSYTH          N/A     45  34  65 CALM      30.21R
LAUREL           N/A     42  26  53 W3        30.17F
ROUNDUP          N/A     46  31  56 CALM      30.11S
$$

REGIONAL REPORTS...DAKOTAS

CITY           SKY/WX    TMP DP  RH WIND       PRES   REMARKS
WILLISTON      MOCLDY    49  35  58 W9        30.10F
MINOT          CLOUDY    57  28  33 SW9       30.06F
DICKINSON      CLOUDY    37  29  72 S6        30.13F
BEACH            N/A     45  32  61 SW12      30.19F
CROSBY         CLOUDY    52  32  46 SW7       30.08S
TIOGA          CLOUDY    50  30  46 SW10      30.13F
WATFORD CITY     N/A     41  32  70 SW7       30.13S
BISMARCK       CLEAR     45  32  60 SW3       30.15F
GRAND FORKS    MOCLDY    44  33  65 S6        30.10F
FARGO          CLEAR     43  27  53 SE5       30.11F
BUFFALO SD       N/A     42  30  62 W8        30.13S
RAPID CITY     CLEAR     34  29  82 W6        30.23F WCI  29
$$

REGIONAL REPORTS...WYOMING/IDAHO/WASHINGTON

CITY           SKY/WX    TMP DP  RH WIND       PRES   REMARKS
GILLETTE       CLEAR     35  29  78 S5        30.24S
SHERIDAN       CLEAR     38  31  76 S6        30.22F
BUFFALO WY       N/A    N/A N/A N/A MISG      30.25F
CODY           CLEAR     41  28  60 W5        30.24F
YELLOWSTONE LA   N/A     26  19  74 CALM      30.29S
IDAHO FALLS    CLEAR     46  25  43 SW7       30.16R
SALMON         CLEAR     43  30  61 CALM      30.14R
BOISE          CLEAR     56  34  43 E5        30.08S
SPOKANE        CLEAR     59  39  47 CALM      30.06S
$$

REGIONAL REPORTS...ALBERTA

CITY           SKY/WX    TMP DP  RH WIND       PRES   REMARKS
EDMONTON       PTCLDY    57  37  47 W8        30.06S
CALGARY        CLEAR     52  30  43 SW3       30.15F
LETHBRIDGE     CLEAR     45  34  65 SW16      30.14F
MEDICINE HAT   CLEAR     45  39  81 SW6       30.13F
WATERTON GATE    N/A     41  32  70 S7          N/A
CARDSTON         N/A     45  32  61 SE5         N/A
MILK RIVER       N/A     39  34  81 SE2         N/A
ONEFOUR          N/A     50  32  50 W1          N/A
$$

REGIONAL REPORTS...SASKATCHEWAN

CITY           SKY/WX    TMP DP  RH WIND       PRES   REMARKS
SWIFT CURRENT  CLEAR     50  36  57 W7        30.10F
REGINA         PTCLDY    45  32  61 W7        30.04F
SASKATOON      PTCLDY    46  34  61 SW10      30.03F
CYPRESS HILLS    N/A     46  30  53 W3          N/A
VAL MARIE        N/A     46  36  66 S1          N/A
ROCKGLEN         N/A     48  32  53 W12         N/A
$$




USA.gov is the U.S. government's official web portal to all federal, state and local government web resources and services.